Home   Weather   Reynosa   Past weeks
Flag for Mexico

Past Weather in Reynosa, Tamaulipas, Mexico — Yesterday and Last 2 Weeks

Now
63 °F

Sunny.


Feels Like: 63 °F
Forecast: N/A
Wind: 17 mph from Northwest

Location: Miller International Airport

Current Time: Jan 23, 2019 at 2:20:49 pm

Latest Report: Jan 23, 2019 at 1:53 pm


Visibility: 10 mi

Pressure: 30.19 "Hg

Humidity: 23%

Dew Point: 24 °F

Location of ReynosaLocation

Past Weather in Reynosa — Graph

°F

Reynosa Temperature Yesterday

Maximum temperature yesterday: 86 °F (at 1:53 pm)
Minimum temperature yesterday: 64 °F (at 12:53 am)
Average temperature yesterday: 73 °F

High & Low Weather Summary for the Past Weeks

 TemperatureHumidityPressure
High86 °F (Jan 18, 3:53 pm)100% (Jan 12, 8:53 am)30.44 "Hg (Jan 12, 8:53 am)
Low43 °F (Jan 20, 7:53 am)20% (Jan 19, 3:53 pm)29.65 "Hg (Jan 22, 3:53 pm)
Average64 °F73%30.16 "Hg
* Reported Jan 8 12:02 pm — Jan 23 12:53 pm, Reynosa. Weather by CustomWeather, © 2019

Note: Actual official high and low records may vary slightly from our data, if they occured in-between our weather recording intervals... More about our weather records

Advertising

Reynosa Weather History for the Previous 24 Hours

Scroll right to see more
 ConditionsComfort  
Time TempWeatherWind HumidityBarometerVisibility
12:53 pm
Wed, Jan 23
60 °FOvercast.20 mph26%30.22 "Hg10 mi
11:53 am60 °FOvercast.20 mph25%30.24 "Hg10 mi
10:53 am61 °FPartly sunny.23 mph25%30.26 "Hg10 mi
9:53 am59 °FSunny.23 mph31%30.25 "Hg10 mi
8:53 am56 °FOvercast.21 mph42%30.22 "Hg10 mi
7:53 am56 °FOvercast.20 mph46%30.18 "Hg10 mi
6:53 am56 °FOvercast.18 mph53%30.14 "Hg10 mi
5:53 am57 °FOvercast.15 mph58%30.10 "Hg10 mi
5:27 am57 °FOvercast.23 mph58%30.08 "Hg10 mi
5:04 am57 °FMostly cloudy.24 mph60%30.06 "Hg10 mi
4:53 am57 °FMostly cloudy.26 mph62%30.03 "Hg10 mi
4:28 am57 °FOvercast.28 mph74%30.02 "Hg10 mi
3:53 am59 °FLight rain. Mostly cloudy.23 mph87%29.98 "Hg8 mi
2:53 am68 °FMostly cloudy.20 mph73%29.91 "Hg10 mi
2:11 am69 °FMostly cloudy.16 mph76%29.89 "Hg10 mi
1:53 am69 °FPassing clouds.15 mph84%29.86 "Hg10 mi
12:53 am70 °FPassing clouds.5 mph81%29.85 "Hg10 mi
11:53 pm
Tue, Jan 22
72 °FClear.6 mph76%29.85 "Hg10 mi
10:53 pm72 °FClear.15 mph76%29.78 "Hg10 mi
9:53 pm72 °FPassing clouds.14 mph78%29.79 "Hg10 mi
9:00 pm72 °FPassing clouds.17 mph76%29.76 "Hg10 mi
7:53 pm73 °FClear.15 mph71%29.74 "Hg10 mi
6:53 pm73 °FClear.21 mph69%29.68 "Hg10 mi
5:53 pm77 °FSunny.20 mph56%29.67 "Hg10 mi
4:53 pm81 °FSunny.28 mph51%29.66 "Hg10 mi
3:53 pm84 °FSunny.29 mph48%29.65 "Hg10 mi
2:55 pm85 °FPassing clouds.30 mph43%29.68 "Hg10 mi
Weather by CustomWeather, © 2019

See weather overview